sat.trackr.live / text

‹ back to catalog

STARLINK-6100

NORAD 57125 · 2023-090AA

PAYLOAD ACTIVE UNKNOWN

§ Identity

Operator
Country
US
Launch date
2023-06-23
Launch site
AFETR
Launch vehicle
Mass (kg)
RCS (m²)

Purposes: comms

External: N2YO · Heavens-Above · Gunter

§ Orbital elements

Epoch: 2026-09-20T09:39:50.823648Z

Period
94.27 min
Inclination
43.0031°
Eccentricity
0.0001306
Mean motion
15.27575624 rev/d
Perigee alt
482.2 km
Apogee alt
484.0 km
Semi-major
6,861.2 km
B*
-5.4444e-6
RAAN
243.5844°
Arg perigee
289.5107°
Mean anomaly
70.5604°
Rev number
18,013

§ Raw data

STARLINK-61001 57125U 23090AA  26263.40267157 -.00000412  00000+0 -54444-5 0  99992 57125  43.0031 243.5844 0001306 289.5107  70.5604 15.27575624180134

JSON: /api/v1/satellites/57125 · /tle

For live sub-satellite position, see the globe view (requires WebGL).

§ Visibility from observer

Set your observer location to see the next 7 days of passes ≥ 10°. The values pass through the URL so the page stays shareable.

No JS? Fill the form by hand. The geolocation button needs JavaScript.